Los Angeles, CA

9:43 AM PST on February 08, 2016 (GMT -0800)
Los Angeles Downtown

Weather History for KCQT - July, 2013

Change the Weather History Date:

Sunday, July 14, 2013

  Actual Average Record
Temperature  
Mean Temperature 74 °F 74 °F  
Max Temperature 84 °F 83 °F 98 °F (1984)
Min Temperature 63 °F 64 °F 52 °F (1908)
Degree Days  
Heating Degree Days 0 0  
Month to date heating degree days 0 0  
Since 1 June heating degree days 0 8  
Since 1 July heating degree days 0 0  
Cooling Degree Days 9 8  
Month to date cooling degree days 126 108  
Year to date cooling degree days 451 396  
Since 1 June cooling degree days 293 242  
Growing Degree Days 22 (Base 50)    
Moisture  
Dew Point 59 °F    
Average Humidity 68    
Maximum Humidity 90    
Minimum Humidity 45    
Precipitation  
Precipitation 0.00 in 0.00 in 0.24 in (1886)
Month to date precipitation 0.04 0.00  
Year to date precipitation 2.67 10.61  
Since 1 July precipitation 0.04  
Sea Level Pressure  
Sea Level Pressure 29.88 in    
Wind  
Wind Speed 1 mph (SW)    
Max Wind Speed 8 mph    
Max Gust Speed 13 mph    
Visibility 8 miles    
Events      
T = Trace of Precipitation, MM = Missing Value Source: NWS Daily Summary

Daily Weather History Graph

Daily Weather History Graph

Search for Another Location

Airport or City:

Trip Planner

Search our weather history database for the weather conditions in past years. The results will help you decide how hot, cold, wet, or windy it might be!

Date:

Astronomy

Jul. 14, 2013 Rise Set
Actual Time 5:52 AM PDT 8:05 PM PDT
Civil Twilight 5:23 AM PDT 8:33 PM PDT
Nautical Twilight 4:48 AM PDT 9:08 PM PDT
Astronomical Twilight 4:10 AM PDT 9:46 PM PDT
Moon 11:54 AM PDT (7/14) 11:41 PM PDT (7/14)
Length of Visible Light 15h 09m
Length of Day
14h 12m
Waxing Crescent, 36% of the Moon is Illuminated
Jul 14
Waxing Crescent
Jul 15
First Quarter
Jul 22
Full
Jul 29
Last Quarter
Aug 6
New

Hourly Weather History & Observations

Time (PDT) Temp. Heat Index Dew Point Humidity Pressure Visibility Wind Dir Wind Speed Gust Speed Precip Events Conditions
12:47 AM 64.0 °F - 59.0 °F 84% 29.91 in 10.0 mi Calm Calm - N/A   Clear
1:47 AM 64.0 °F - 57.9 °F 80% 29.90 in 10.0 mi Calm Calm - N/A   Clear
2:47 AM 64.0 °F - 57.9 °F 80% 29.88 in 9.0 mi Calm Calm - N/A   Clear
3:47 AM 63.0 °F - 57.9 °F 84% 29.89 in 9.0 mi Calm Calm - N/A   Clear
4:47 AM 63.0 °F - 59.0 °F 87% 29.90 in 9.0 mi Calm Calm - N/A   Clear
5:47 AM 63.0 °F - 59.0 °F 87% 29.91 in 8.0 mi Calm Calm - N/A   Clear
6:47 AM 63.0 °F - 59.0 °F 87% 29.92 in 7.0 mi Calm Calm - N/A   Partly Cloudy
7:37 AM 66.2 °F - 60.8 °F 83% 29.93 in 5.0 mi Calm Calm - N/A   Haze
7:47 AM 66.0 °F - 60.1 °F 81% 29.92 in 5.0 mi Calm Calm - N/A   Haze
8:04 AM 66.2 °F - 60.8 °F 83% 29.93 in 5.0 mi Calm Calm - N/A   Haze
8:08 AM 66.2 °F - 60.8 °F 83% 29.93 in 5.0 mi Calm Calm - N/A   Haze
8:15 AM 68.0 °F - 60.8 °F 78% 29.93 in 5.0 mi Calm Calm - N/A   Haze
8:47 AM 69.1 °F - 60.1 °F 73% 29.93 in 5.0 mi Calm Calm - N/A   Haze
9:47 AM 71.1 °F - 60.1 °F 68% 29.93 in 5.0 mi Calm Calm - N/A   Haze
10:47 AM 78.1 °F - 60.1 °F 54% 29.90 in 7.0 mi Calm Calm - N/A   Clear
11:47 AM 82.0 °F 82.1 °F 59.0 °F 45% 29.89 in 9.0 mi Calm Calm - N/A   Clear
12:47 PM 82.0 °F 83.0 °F 62.1 °F 51% 29.88 in 7.0 mi Variable 4.6 mph - N/A   Clear
1:47 PM 80.1 °F 80.9 °F 60.1 °F 50% 29.87 in 9.0 mi SW 3.5 mph - N/A   Clear
2:47 PM 80.1 °F 80.7 °F 59.0 °F 48% 29.86 in 10.0 mi Calm Calm - N/A   Clear
3:47 PM 81.0 °F 81.3 °F 59.0 °F 47% 29.84 in 10.0 mi Variable 3.5 mph - N/A   Clear
4:47 PM 80.1 °F 80.4 °F 57.0 °F 45% 29.82 in 10.0 mi Variable 4.6 mph - N/A   Clear
5:47 PM 75.9 °F - 57.0 °F 52% 29.82 in 10.0 mi Calm Calm - N/A   Clear
6:47 PM 73.0 °F - 55.9 °F 55% 29.83 in 10.0 mi Variable 3.5 mph - N/A   Clear
7:47 PM 71.1 °F - 57.0 °F 61% 29.83 in 10.0 mi Calm Calm - N/A   Clear
8:47 PM 69.1 °F - 59.0 °F 70% 29.83 in 10.0 mi Calm Calm - N/A   Clear
9:47 PM 69.1 °F - 61.0 °F 75% 29.85 in 10.0 mi Calm Calm - N/A   Clear
10:47 PM 69.1 °F - 61.0 °F 75% 29.86 in 10.0 mi Calm Calm - N/A   Clear
11:47 PM 68.0 °F - 61.0 °F 78% 29.86 in 10.0 mi Calm Calm - N/A   Clear